| time (UTC) | temp C | wind direction | speed KPH | gust KPH | rain 1hr cm | rain 24hr cm | rain mn cm | humidity % | barometer mb |
| 20260505100017 | 16 | 211 | 9.7 | 16.1 | 0.00 | 1.09 | 0.81 | 77 | 1000.3 |
| 20260505095017 | 16 | 205 | 11.3 | 17.7 | 0.00 | 1.09 | 0.81 | 77 | 1000.3 |
| 20260505094017 | 15 | 225 | 11.3 | 20.9 | 0.00 | 1.09 | 0.81 | 79 | 1000.1 |
| 20260505093017 | 15 | 174 | 9.7 | 16.1 | 0.00 | 1.09 | 0.81 | 82 | 1000.2 |
| 20260505092018 | 14 | 309 | 8.0 | 16.1 | 0.00 | 1.09 | 0.81 | 86 | 1000.1 |
| 20260505091018 | 13 | 277 | 4.8 | 16.1 | 0.00 | 1.09 | 0.81 | 90 | 1000.2 |
| 20260505090018 | 12 | 219 | 4.8 | 11.3 | 0.00 | 1.09 | 0.81 | 95 | 1000.0 |
| 20260505085018 | 11 | 191 | 3.2 | 8.0 | 0.00 | 1.09 | 0.81 | 98 | 1000.2 |
| 20260505084038 | 11 | 167 | 1.6 | 8.0 | 0.00 | 1.09 | 0.81 | 98 | 1000.3 |
| 20260505083018 | 11 | 110 | 1.6 | 4.8 | 0.00 | 1.09 | 0.81 | 97 | 1000.4 |
| 20260505082019 | 11 | 205 | 3.2 | 4.8 | 0.00 | 1.09 | 0.81 | 97 | 1000.6 |
| 20260505081019 | 11 | 173 | 3.2 | 8.0 | 0.00 | 1.09 | 0.81 | 97 | 1000.7 |
| 20260505080019 | 11 | 195 | 4.8 | 9.7 | 0.00 | 1.09 | 0.81 | 98 | 1000.8 |
| 20260505075019 | 11 | 159 | 3.2 | 9.7 | 0.00 | 1.09 | 0.81 | 98 | 1000.8 |
| 20260505074019 | 11 | 173 | 4.8 | 11.3 | 0.00 | 1.09 | 0.81 | 98 | 1000.8 |
| 20260505073016 | 12 | 162 | 3.2 | 9.7 | 0.00 | 1.09 | 0.81 | 98 | 1000.9 |
| 20260505072016 | 12 | 169 | 3.2 | 9.7 | 0.03 | 1.09 | 0.81 | 98 | 1000.9 |
| 20260505071017 | 12 | 182 | 4.8 | 12.9 | 0.15 | 1.09 | 0.81 | 98 | 1001.0 |
| 20260505070017 | 12 | 180 | 6.4 | 12.9 | 0.46 | 1.09 | 0.81 | 97 | 1001.2 |
| 20260505065017 | 13 | 184 | 6.4 | 12.9 | 0.58 | 1.09 | 0.81 | 96 | 1001.3 |
| 20260505064017 | 13 | 182 | 6.4 | 14.5 | 0.61 | 1.09 | 0.81 | 94 | 1001.4 |
| 20260505063017 | 13 | 224 | 4.8 | 9.7 | 0.74 | 1.09 | 0.81 | 95 | 1001.6 |
| 20260505062038 | 14 | 229 | 3.2 | 11.3 | 0.76 | 1.07 | 0.76 | 93 | 1002.8 |
| 20260505061018 | 13 | 200 | 11.3 | 19.3 | 0.64 | 0.94 | 0.66 | 94 | 1001.8 |
| 20260505060018 | 13 | 195 | 12.9 | 20.9 | 0.36 | 0.64 | 0.36 | 93 | 1002.5 |
| 20260505055018 | 13 | 199 | 12.9 | 20.9 | 0.20 | 0.51 | 0.20 | 91 | 1002.2 |
| 20260505054018 | 14 | 213 | 12.9 | 20.9 | 0.20 | 0.48 | 0.20 | 88 | 1002.2 |
| 20260505053019 | 15 | 248 | 12.9 | 22.5 | 0.05 | 0.36 | 0.05 | 81 | 1002.2 |
| 20260505052018 | 15 | 219 | 11.3 | 19.3 | 0.00 | 0.30 | 0.00 | 77 | 1002.3 |
| 20260505051059 | 16 | 211 | 11.3 | 22.5 | 0.00 | 0.30 | 0.00 | 75 | 1002.2 |
| 20260505041017 | 17 | 210 | 14.5 | 29.0 | 0.00 | 0.30 | 0.00 | 69 | 1001.9 |
| 20260505040017 | 17 | 210 | 11.3 | 22.5 | 0.00 | 0.30 | 0.00 | 70 | 1001.8 |
| 20260505035017 | 16 | 219 | 9.7 | 14.5 | 0.00 | 0.30 | 0.30 | 73 | 1001.8 |
| 20260505034018 | 15 | 218 | 8.0 | 14.5 | 0.00 | 0.30 | 0.30 | 75 | 1001.6 |
| 20260505033017 | 15 | 222 | 6.4 | 16.1 | 0.00 | 0.30 | 0.30 | 74 | 1001.7 |
| 20260505032019 | 15 | 226 | 4.8 | 14.5 | 0.00 | 0.30 | 0.30 | 73 | 1001.9 |
| 20260505031018 | 16 | 263 | 6.4 | 16.1 | 0.00 | 0.30 | 0.30 | 72 | 1002.0 |
| 20260505030038 | 16 | 239 | 11.3 | 17.7 | 0.00 | 0.30 | 0.30 | 70 | 1002.2 |
| 20260505025019 | 15 | 257 | 9.7 | 19.3 | 0.00 | 0.30 | 0.30 | 71 | 1002.3 |
| 20260505024019 | 15 | 241 | 6.4 | 16.1 | 0.00 | 0.30 | 0.30 | 72 | 1002.3 |
| 20260505023039 | 15 | 191 | 6.4 | 14.5 | 0.00 | 0.30 | 0.30 | 72 | 1002.5 |
| 20260505022019 | 14 | 190 | 6.4 | 11.3 | 0.00 | 0.30 | 0.30 | 69 | 1002.4 |
| 20260505021019 | 13 | 182 | 6.4 | 11.3 | 0.00 | 0.30 | 0.30 | 67 | 1002.5 |
| 20260505020040 | 13 | 181 | 8.0 | 14.5 | 0.00 | 0.30 | 0.30 | 68 | 1002.7 |
| 20260505015039 | 14 | 182 | 4.8 | 8.0 | 0.00 | 0.30 | 0.30 | 67 | 1002.3 |
| 20260505014037 | 15 | 185 | 4.8 | 9.7 | 0.00 | 0.30 | 0.30 | 63 | 1002.2 |
| 20260505013017 | 16 | 206 | 3.2 | 9.7 | 0.00 | 0.30 | 0.30 | 58 | 1002.1 |
| 20260505012017 | 16 | 252 | 4.8 | 9.7 | 0.00 | 0.30 | 0.30 | 55 | 1002.2 |
| 20260505011017 | 16 | 221 | 3.2 | 6.4 | 0.00 | 0.30 | 0.30 | 54 | 1002.2 |
| 20260505010017 | 17 | 291 | 1.6 | 6.4 | 0.00 | 0.30 | 0.30 | 53 | 1002.1 |
| 20260505005017 | 18 | 216 | 3.2 | 8.0 | 0.00 | 0.30 | 0.30 | 50 | 1002.1 |
| 20260505004018 | 18 | 216 | 4.8 | 9.7 | 0.00 | 0.30 | 0.30 | 49 | 1002.0 |
| 20260505003018 | 18 | 206 | 3.2 | 9.7 | 0.00 | 0.30 | 0.30 | 47 | 1002.1 |
| 20260505002018 | 19 | 208 | 4.8 | 8.0 | 0.00 | 0.30 | 0.30 | 45 | 1002.1 |
| 20260505001018 | 20 | 207 | 4.8 | 9.7 | 0.00 | 0.30 | 0.30 | 44 | 1002.2 |
| 20260505000018 | 20 | 203 | 8.0 | 14.5 | 0.00 | 0.30 | 0.30 | 42 | 1002.2 |
| 20260504235018 | 21 | 208 | 8.0 | 22.5 | 0.00 | 0.30 | 0.30 | 42 | 1002.2 |
| 20260504234019 | 21 | 209 | 8.0 | 16.1 | 0.00 | 0.30 | 0.30 | 41 | 1002.2 |
| 20260504233019 | 21 | 214 | 4.8 | 14.5 | 0.00 | 0.30 | 0.30 | 41 | 1002.2 |
| 20260504232019 | 21 | 194 | 9.7 | 22.5 | 0.00 | 0.30 | 0.30 | 40 | 1002.2 |
| 20260504231019 | 21 | 200 | 9.7 | 20.9 | 0.00 | 0.30 | 0.30 | 41 | 1002.3 |
| 20260504230019 | 21 | 218 | 6.4 | 14.5 | 0.00 | 0.30 | 0.30 | 43 | 1002.4 |
| 20260504225016 | 21 | 200 | 6.4 | 17.7 | 0.00 | 0.30 | 0.30 | 45 | 1002.5 |
| 20260504224037 | 21 | 194 | 9.7 | 19.3 | 0.00 | 0.30 | 0.30 | 46 | 1002.6 |
| 20260504223017 | 21 | 201 | 9.7 | 20.9 | 0.00 | 0.30 | 0.30 | 46 | 1002.5 |
| 20260504222017 | 21 | 207 | 9.7 | 17.7 | 0.00 | 0.30 | 0.30 | 45 | 1002.5 |
| 20260504221017 | 21 | 192 | 12.9 | 24.1 | 0.00 | 0.30 | 0.30 | 44 | 1002.5 |
| 20260504220017 | 21 | 199 | 11.3 | 24.1 | 0.00 | 0.30 | 0.30 | 44 | 1002.5 |
| 20260504215017 | 21 | 198 | 14.5 | 27.4 | 0.00 | 0.30 | 0.30 | 40 | 1002.4 |
| 20260504214038 | 21 | 200 | 11.3 | 22.5 | 0.00 | 0.30 | 0.30 | 42 | 1002.4 |
| 20260504213018 | 22 | 193 | 12.9 | 22.5 | 0.00 | 0.30 | 0.30 | 43 | 1002.5 |
| 20260504212038 | 22 | 194 | 11.3 | 22.5 | 0.00 | 0.30 | 0.30 | 44 | 1002.4 |
| 20260504211018 | 22 | 186 | 14.5 | 29.0 | 0.00 | 0.30 | 0.30 | 43 | 1002.4 |
| 20260504210038 | 21 | 183 | 14.5 | 22.5 | 0.00 | 0.30 | 0.30 | 45 | 1002.5 |
| 20260504205038 | 21 | 187 | 12.9 | 22.5 | 0.00 | 0.30 | 0.30 | 45 | 1002.5 |
| 20260504204019 | 21 | 190 | 12.9 | 29.0 | 0.00 | 0.30 | 0.30 | 45 | 1002.7 |
| 20260504203019 | 21 | 187 | 12.9 | 20.9 | 0.00 | 0.30 | 0.30 | 45 | 1002.8 |
| 20260504202019 | 21 | 190 | 14.5 | 27.4 | 0.00 | 0.30 | 0.30 | 45 | 1002.9 |
| 20260504201019 | 21 | 185 | 14.5 | 20.9 | 0.00 | 0.30 | 0.30 | 47 | 1002.9 |
| 20260504200019 | 21 | 184 | 14.5 | 22.5 | 0.00 | 0.30 | 0.30 | 48 | 1003.1 |
| 20260504195016 | 21 | 185 | 16.1 | 24.1 | 0.03 | 0.30 | 0.30 | 48 | 1003.2 |
| 20260504194037 | 21 | 187 | 16.1 | 27.4 | 0.03 | 0.30 | 0.30 | 47 | 1003.4 |
| 20260504193017 | 21 | 189 | 16.1 | 29.0 | 0.03 | 0.30 | 0.30 | 48 | 1003.5 |
| 20260504192017 | 21 | 191 | 9.7 | 19.3 | 0.03 | 0.30 | 0.30 | 49 | 1003.8 |
| 20260504191017 | 20 | 195 | 11.3 | 22.5 | 0.03 | 0.30 | 0.30 | 49 | 1003.9 |
| 20260504190017 | 20 | 194 | 17.7 | 30.6 | 0.03 | 0.30 | 0.30 | 49 | 1004.1 |
| 20260504185017 | 20 | 191 | 14.5 | 25.7 | 0.00 | 0.30 | 0.28 | 50 | 1004.2 |
| 20260504184038 | 20 | 194 | 12.9 | 22.5 | 0.00 | 0.30 | 0.28 | 52 | 1004.2 |
| 20260504183018 | 20 | 217 | 11.3 | 24.1 | 0.03 | 0.30 | 0.28 | 52 | 1004.4 |
| 20260504182018 | 19 | 228 | 14.5 | 29.0 | 0.03 | 0.30 | 0.28 | 53 | 1004.5 |
| 20260504181018 | 19 | 244 | 11.3 | 20.9 | 0.03 | 0.30 | 0.28 | 53 | 1004.6 |
| 20260504180039 | 18 | 248 | 12.9 | 25.7 | 0.03 | 0.30 | 0.28 | 54 | 1004.8 |
| 20260504175019 | 18 | 228 | 14.5 | 27.4 | 0.05 | 0.30 | 0.28 | 54 | 1005.0 |
| 20260504174039 | 18 | 201 | 16.1 | 27.4 | 0.05 | 0.30 | 0.28 | 54 | 1005.1 |
| 20260504173019 | 18 | 223 | 12.9 | 29.0 | 0.08 | 0.30 | 0.25 | 55 | 1005.2 |
| 20260504172019 | 17 | 267 | 12.9 | 20.9 | 0.10 | 0.28 | 0.25 | 55 | 1005.3 |
| 20260504171019 | 17 | 212 | 12.9 | 25.7 | 0.10 | 0.28 | 0.25 | 55 | 1005.5 |
| 20260504151018 | 16 | 204 | 17.7 | 25.7 | 0.05 | 0.10 | 0.08 | 56 | 1005.9 |
| 20260504141017 | 15 | 211 | 14.5 | 35.4 | 0.03 | 0.05 | 0.03 | 57 | 1005.8 |